Weather Roundup
Issued by NWS

Home | Current Version | Previous Version | Text Only | Print | Product List | Glossary On
Versions: 1 2 3 4 5 6 7 8 9 10 11 12 13 14 15 16 17 18 19 20 21 22 23 24 25 26 27 28 29 30 31 32 33 34 35 36 37 38 39 40 41 42 43 44 45 46 47 48 49 50
000
NZUS93 KARX 301810
HRRWXR

CURRENT HOURLY OBSERVATIONS ACROSS
MUCH OF THE UPPER MISSISSIPPI VALLEY
NATIONAL WEATHER SERVICE LA CROSSE WI
1200 PM CST FRI JAN 30 2015


...SOUTHEAST MINNESOTA...


CITY           SKY/WX    TMP DP  RH WIND       PRES   REMARKS
ROCHESTER      MOSUNNY   16   9  74 S10       30.47F WCI   4
ROCHESTER/MAYO FAIR      18   7  62 SW3       30.48F
WINONA         PTSUNNY   19   9  63 CALM      30.54F
AUSTIN         MOSUNNY   19  10  68 S8        30.48F WCI   9
ALBERT LEA     SUNNY     21  12  68 S7        30.47F WCI  13
DODGE CENTER   SUNNY     19  12  73 S10       30.45F WCI   8
PRESTON        MOSUNNY   17   8  66 CALM      30.50F
OWATONNA       SUNNY     21  14  73 S10       30.46F WCI  10
FARIBAULT      SUNNY     21  14  73 S5        30.46F WCI  15
$$

...ELSEWHERE IN MINNESOTA...


CITY           SKY/WX    TMP DP  RH WIND       PRES   REMARKS
MINNEAPOLIS    PTSUNNY   19   9  65 S8        30.48F WCI   9
INTNL FALLS    LGT SNOW   4  -1  80 SE7       30.34F VSB 3/4 WCI  -8
DULUTH         CLOUDY    10   0  63 S8        30.37F WCI  -2
RED WING       MOSUNNY   19   7  58 S5        30.49F WCI  13
REDWOOD FALLS  CLOUDY    21  16  81 S13       30.43F WCI   9
MANKATO        SUNNY     21  10  63 S13       30.45F WCI   9
WORTHINGTON    MOSUNNY   25  18  74 S13       30.40F WCI  13
FAIRMONT       SUNNY     25  12  58 S9G16     30.45F WCI  15
$$

...SOUTHWEST WISCONSIN...


CITY           SKY/WX    TMP DP  RH WIND       PRES   REMARKS
LA CROSSE      CLOUDY    19   5  54 CALM      30.54F
PRAIRIE DU CHI PTSUNNY   21   5  50 CALM      30.54F
BOSCOBEL       PTSUNNY   22   8  55 SW6       30.53F WCI  14
LONE ROCK      PTSUNNY   20   7  57 CALM      30.52F
PLATTEVILLE    MOSUNNY   20  11  66 CALM      30.50F
FORT MC COY    PTSUNNY   19   7  60 W3        30.52F
CAMP DOUGLAS   CLOUDY    18   9  68 W3        30.50F
VIROQUA        FAIR      18   9  66 CALM      30.48F
WIS DELLS      FAIR      19   7  61 CALM      30.49F
$$

...ELSEWHERE IN WISCONSIN...


CITY           SKY/WX    TMP DP  RH WIND       PRES   REMARKS
MILWAUKEE      MOSUNNY   25   7  46 CALM      30.50F
MADISON        PTSUNNY   21   9  59 CALM      30.50F
GREEN BAY      PTSUNNY   19   7  59 CALM      30.50F
EAU CLAIRE     CLOUDY    13   4  67 S6        30.48F WCI   4
BLACK RVR FLS  FAIR      17   5  59 W6        30.51F WCI   9
MEDFORD        MOSUNNY   13   3  66 SW6       30.43F WCI   3
WAUSAU         PTSUNNY   14   3  61 SW7       30.44F WCI   4
WIS RAPIDS     MOSUNNY   17   4  56 CALM      30.49F
MARSHFIELD     PTSUNNY   14   5  67 SW5       30.46F WCI   6
RICE LAKE      MOSUNNY   11   2  66 S5        30.48F WCI   3
$$

...NORTHEAST IOWA...


CITY           SKY/WX    TMP DP  RH WIND       PRES   REMARKS
DECORAH        PTSUNNY   19   5  53 VRB5      30.49F WCI  13
MASON CITY     SUNNY     22  13  68 S7        30.50F WCI  13
CHARLES CITY   FAIR      21   9  58 CALM      30.52S
OELWEIN        MOSUNNY   23   9  54 CALM      30.51F
$$

...ELSEWHERE IN IOWA...


CITY           SKY/WX    TMP DP  RH WIND       PRES   REMARKS
DES MOINES     PTSUNNY   28  13  53 SW6       30.53F WCI  22
IOWA CITY      SUNNY     26  15  63 SW5       30.56F WCI  20
FORT DODGE     SUNNY     27  16  63 S12       30.48F WCI  16
$$

...NORTHERN ILLINOIS...


CITY           SKY/WX    TMP DP  RH WIND       PRES   REMARKS
CHICAGO-OHARE  MOSUNNY   25   8  48 VRB6      30.51F WCI  18
CHICAGO-MIDWAY MOSUNNY   31   9  39 N3        30.51F
MOLINE         SUNNY     26  12  55 CALM      30.54S
ROCKFORD       PTSUNNY   25   8  48 W5        30.54F WCI  19
PEORIA         SUNNY     33  16  49 W5        30.52F WCI  29
$$

NOTE: "FAIR" INDICATES FEW OR NO CLOUDS BELOW 12,000 FEET WITH NO
SIGNIFICANT WEATHER AND/OR OBSTRUCTIONS TO VISIBILITY. WIND
SPEEDS ARE IN MILES-PER-HOUR.



USA.gov is the U.S. government's official web portal to all federal, state and local government web resources and services.